RH
11 13 14 21 28 28 26 22 22 11 10 10 20 34 36 40 33 37 30 35 29 24 27 39 42 42 44 37 33 38 35 28 25 20 18 18 18 18 18 18 20 22 24 22 27 30 34 36 43
17 18 20 21 23 18 16 17 10 11 15 35 34 38 38 40 34 28 32 36 35 25 23 33 40 43 44 43 36 38 42 39 31 23 21 20 19 20 20 20 21 25 28 35 43 42 42 43 47
16 18 19 34 34 20 15 12 10 9 13 21 37 44 44 40 33 30 31 35 37 31 24 28 37 44 44 46 42 37 42 44 38 29 23 22 21 21 22 21 22 24 31 45 46 46 46 55 70
18 19 18 23 18 18 16 12 10 10 9 27 38 48 47 44 36 29 26 32 38 38 29 27 31 42 46 46 47 41 42 46 45 37 26 24 24 22 23 24 25 26 28 35 44 51 51 75 84
17 14 22 21 19 18 15 11 10 10 11 20 28 50 44 44 39 26 23 24 33 38 34 28 29 35 46 48 48 47 44 44 48 43 33 25 25 24 24 26 27 28 30 32 33 36 48 61 75
14 14 20 17 15 13 12 10 10 10 13 22 44 48 42 42 37 28 23 26 33 37 38 30 27 28 40 47 48 50 48 47 46 47 39 29 26 26 26 27 28 30 32 35 36 37 37 45 56
18 22 19 16 15 12 9 9 10 11 11 10 36 54 39 40 41 33 25 31 35 41 40 35 30 25 27 41 49 50 52 51 49 49 45 37 29 28 28 28 29 31 34 37 38 42 42 41 41
14 22 19 17 14 10 9 9 8 9 10 9 27 37 37 34 45 38 29 34 38 42 42 44 40 29 24 29 45 51 51 55 54 51 50 46 34 30 30 30 30 32 35 37 39 42 45 45 46
15 25 24 16 14 10 10 12 9 9 8 8 9 12 20 16 39 42 32 32 40 44 46 49 49 38 28 26 36 48 54 54 58 57 56 55 45 34 32 33 33 34 35 37 40 43 47 49 49
20 26 21 16 12 11 12 12 11 10 10 9 8 13 10 13 28 34 30 22 25 34 35 46 51 46 35 31 34 44 54 55 58 61 58 56 56 46 35 35 36 36 37 38 41 46 49 53 54
19 22 18 14 12 13 13 12 11 10 12 9 8 8 9 14 25 28 27 20 17 22 33 37 45 46 41 34 33 42 54 57 56 61 60 58 57 55 43 39 37 38 38 39 43 46 49 52 57
16 15 15 13 13 15 14 12 13 12 11 10 10 10 10 12 25 22 23 21 20 23 32 32 37 42 44 37 33 33 43 54 55 54 54 53 58 52 45 39 36 37 37 39 40 46 49 52 56
20 19 17 18 18 17 16 16 16 13 10 10 10 10 10 11 18 20 24 25 25 24 28 29 32 38 47 47 40 35 36 42 47 49 46 46 50 47 42 34 34 36 38 38 42 43 50 54 55
22 22 22 18 17 17 18 18 16 11 10 9 11 13 15 13 13 14 18 15 27 26 27 30 31 35 47 52 50 47 40 44 47 47 44 43 44 43 43 43 40 34 40 43 49 53 53 56 60
21 23 20 15 16 21 18 19 20 8 14 15 16 16 16 17 16 13 12 13 16 24 28 28 32 34 43 51 56 55 55 50 46 45 45 45 46 44 46 50 47 48 44 48 49 61 76 80 78
23 21 22 13 20 16 16 16 11 15 18 18 18 18 18 17 16 16 15 14 14 14 30 28 31 31 36 45 52 60 60 63 62 52 46 45 47 49 53 57 59 52 54 54 60 71 83 90 87
26 22 19 18 15 14 21 20 22 17 16 19 20 20 19 19 16 14 16 16 15 13 16 26 30 30 32 42 50 58 64 64 66 64 55 49 51 54 59 64 67 63 58 60 69 80 89 93 87
24 31 30 25 16 21 25 28 25 16 18 21 20 20 20 19 17 16 18 18 18 16 15 18 26 29 32 45 52 63 70 68 68 56 56 53 53 57 61 66 70 73 64 64 71 82 96 98 95
19 27 24 26 24 24 25 25 18 19 24 25 23 22 22 20 19 20 19 18 19 17 16 15 15 19 26 37 44 62 63 63 61 47 51 55 58 60 64 69 72 74 68 68 75 86 100 100 100
29 29 26 21 20 25 30 35 32 34 31 25 24 24 22 20 21 21 21 23 23 20 17 16 16 18 23 31 37 54 60 63 62 51 52 56 60 74 85 87 82 75 74 77 84 91 97 100 100
32 28 26 23 34 36 40 47 37 32 29 25 23 23 22 23 24 24 35 35 27 23 19 18 19 22 30 33 38 51 69 72 68 58 60 64 71 72 78 86 90 91 93 95 90 87 90 87 99
38 35 30 34 39 46 39 62 41 32 30 31 26 23 23 25 34 54 46 34 27 24 23 23 25 28 33 38 48 60 65 69 65 64 66 69 71 73 78 80 80 85 88 88 89 90 86 86 84
42 38 41 41 48 50 48 59 44 36 36 33 31 24 26 37 52 54 52 39 34 32 30 30 32 39 43 49 51 64 74 80 74 74 69 71 70 72 80 85 87 80 86 90 88 85 83 87 93
39 42 44 55 59 80 59 56 51 42 35 30 31 30 30 43 49 47 48 48 42 38 40 40 43 49 54 58 60 69 79 81 81 79 76 74 79 79 79 79 86 83 90 91 90 99 100 100 99
42 50 63 71 81 59 51 59 39 33 31 32 33 32 33 50 51 48 45 41 39 44 51 55 59 61 63 64 70 77 82 87 90 84 74 75 76 80 88 76 86 98 98 98 98 98 98 100 100
49 52 74 67 71 49 51 64 47 34 28 27 32 31 39 54 54 50 40 33 31 28 29 29 30 35 42 48 59 77 80 84 87 93 99 98 99 99 99 97 89 88 90 98 98 94 97 100 99
52 58 44 56 59 70 60 50 39 39 44 52 53 46 51 54 52 44 42 40 33 31 30 28 28 30 32 36 53 68 76 85 94 91 83 83 80 83 83 92 95 94 95 99 99 99 99 98 99
40 44 63 72 74 77 60 62 50 49 47 55 69 65 56 52 51 47 47 44 42 40 34 32 38 40 39 41 44 44 44 46 58 68 68 72 86 85 92 96 99 98 98 95 98 98 98 99 99
43 41 52 63 75 77 69 42 49 40 47 58 68 60 51 50 48 47 47 55 57 55 53 54 56 55 55 53 54 54 52 49 51 57 62 65 66 84 89 96 100 100 96 98 100 100 100 95 94
36 42 38 73 68 74 54 43 42 41 47 61 66 55 55 54 56 54 55 61 66 67 70 68 66 68 72 69 65 61 58 57 54 53 53 54 60 70 85 90 92 94 98 99 99 99 99 100 99
Wind_Speed
6 6 6 5 4 5 2 2 2 6 4 2 3 5 6 3 3 4 9 10 14 24 27 28 26 24 21 20 19 17 16 16 15 15 15 15 16 16 15 14 13 13 14 15 15 14 15 16 16
4 6 4 2 5 4 4 4 4 2 5 13 9 6 5 3 4 8 10 12 13 21 25 27 28 26 24 21 19 18 16 15 15 15 15 15 15 15 15 15 14 14 15 16 16 15 15 15 15
5 5 3 4 3 3 2 3 4 4 1 4 3 5 3 2 4 5 5 12 12 20 24 25 27 26 25 22 20 18 17 15 14 14 15 15 15 16 16 16 16 15 15 16 16 16 15 15 15
4 2 4 4 1 3 3 4 3 4 2 2 7 4 3 3 4 4 4 7 6 15 21 24 25 27 26 24 22 19 18 16 15 15 15 16 16 16 16 16 15 15 15 15 15 14 14 16 15
2 2 4 3 3 4 4 8 7 3 1 3 2 2 2 5 5 5 4 8 5 11 19 22 24 26 27 25 24 21 19 18 16 15 15 15 15 15 15 15 15 15 14 14 13 13 13 13 12
2 3 5 1 3 5 7 9 3 0 2 5 5 4 3 5 6 5 7 7 9 10 18 21 23 25 27 26 25 23 21 19 17 16 15 14 14 14 15 14 14 14 14 14 12 11 11 10 10
5 4 4 2 3 5 3 13 5 3 3 5 11 5 2 11 9 7 7 9 10 15 15 20 23 25 26 27 26 25 23 21 19 17 15 14 14 14 14 14 13 13 14 14 13 11 10 9 8
3 5 3 3 2 4 4 7 6 7 2 5 1 2 2 8 12 10 10 11 12 15 17 18 22 25 26 27 28 27 25 23 21 19 17 16 15 14 13 13 13 12 12 12 12 11 10 9 8
3 4 1 4 5 4 2 8 6 10 1 8 3 3 5 4 14 12 12 12 14 17 16 16 19 25 27 27 28 29 28 27 24 22 20 19 17 16 15 13 13 13 12 12 12 12 11 10 9
4 4 10 6 4 4 7 4 12 7 9 4 4 2 6 7 9 13 13 13 15 17 17 17 17 23 28 28 28 30 31 30 28 25 23 21 19 17 15 15 14 14 14 13 13 12 12 11 10
4 6 5 4 9 8 9 14 5 6 2 4 8 13 9 10 13 16 16 15 14 16 19 18 17 20 25 29 29 30 32 32 31 27 25 23 22 20 19 18 17 16 15 14 14 13 12 12 12
1 7 5 3 2 6 5 10 12 11 10 14 17 15 19 17 19 19 22 19 17 21 19 17 18 19 22 27 30 30 33 34 33 31 28 27 26 24 21 20 19 18 16 16 15 14 14 14 13
3 3 7 7 11 13 11 13 11 20 26 24 23 21 22 20 23 24 23 23 21 24 22 21 21 22 23 25 28 32 33 35 34 32 29 29 27 25 24 22 21 20 19 18 17 16 15 15 15
2 8 15 11 12 11 7 8 4 20 23 21 17 13 9 7 16 21 25 26 30 26 27 26 25 25 26 26 25 27 32 34 34 33 32 30 28 28 27 25 25 22 21 18 17 16 16 17 17
6 6 7 6 7 8 11 8 7 24 14 7 6 8 10 12 11 9 14 21 26 33 30 30 28 28 30 29 28 26 27 32 35 35 33 32 30 29 29 28 26 24 20 19 19 19 17 17 18
3 3 3 4 4 3 9 9 8 5 9 14 13 13 15 15 16 16 16 17 18 23 36 34 33 31 32 31 30 30 27 28 30 34 35 33 31 31 31 30 28 25 22 21 21 20 20 19 18
4 4 4 8 7 1 5 7 6 4 20 21 24 21 18 21 23 24 20 19 19 20 29 37 37 34 32 33 32 31 29 27 27 29 32 32 31 31 31 31 29 26 25 25 23 23 22 21 20
5 4 4 6 2 2 3 10 10 25 19 24 32 31 26 27 31 29 22 22 25 21 24 30 35 35 34 36 34 31 30 29 27 26 27 30 30 30 31 31 31 29 28 28 28 27 26 26 24
3 4 5 4 4 3 6 7 19 22 18 25 32 36 31 31 31 24 26 30 30 26 29 31 29 34 35 35 33 32 31 28 26 25 25 25 27 27 29 31 31 31 32 32 30 30 32 31 30
8 11 9 6 10 3 11 12 11 9 15 25 30 30 33 30 26 28 32 24 18 20 25 26 27 28 30 29 29 29 29 28 26 24 23 22 23 24 25 27 29 30 32 33 34 33 35 34 32
8 10 6 7 6 5 7 9 6 9 13 28 30 28 28 26 28 23 15 9 8 11 20 20 20 22 24 24 24 25 28 29 26 24 23 23 22 22 23 23 28 30 33 34 32 33 36 34 33
10 9 11 5 3 5 2 7 6 6 10 6 20 23 22 19 8 7 6 6 5 9 13 15 14 15 17 19 19 21 26 27 25 26 21 18 19 19 23 22 24 29 30 32 35 38 38 39 39
7 6 9 4 4 3 2 5 5 2 5 13 9 17 12 6 10 11 9 8 9 9 11 12 13 13 12 11 12 15 20 24 25 24 22 18 20 22 22 23 22 25 29 31 34 36 37 37 37
6 3 2 3 3 6 9 9 6 6 8 4 6 9 9 13 15 13 10 9 9 10 9 9 9 8 8 8 9 11 15 17 21 23 22 23 25 22 21 21 24 25 25 28 29 32 33 31 33
6 7 2 2 2 9 11 10 13 5 5 8 9 15 15 20 18 14 11 9 9 10 11 11 10 9 8 8 9 11 12 14 18 22 24 25 25 23 21 25 25 27 27 28 25 31 31 30 35
12 10 6 8 5 5 1 7 6 14 16 17 16 17 20 23 18 15 12 12 12 13 13 12 11 9 7 5 6 9 12 16 17 18 21 21 21 20 20 23 24 26 26 25 24 26 27 27 27
7 12 5 4 1 2 5 7 7 7 9 4 9 16 28 25 22 18 16 15 14 13 13 13 12 10 7 3 4 7 11 13 16 18 19 20 23 25 23 24 23 24 27 26 23 24 24 25 23
7 6 3 1 4 6 4 7 9 3 9 7 8 17 26 25 22 18 17 18 15 12 11 13 12 10 9 7 2 1 3 6 10 12 15 17 20 21 22 21 21 23 22 23 24 20 21 21 20
6 13 4 5 5 5 4 11 7 13 12 10 8 17 24 22 19 17 15 16 14 12 11 11 11 10 9 8 5 1 2 3 5 8 11 14 16 19 21 21 20 21 21 23 20 22 22 21 21
10 9 18 4 6 6 13 22 3 3 7 10 17 23 18 17 15 15 14 15 15 14 13 11 10 9 8 6 3 1 2 5 6 8 10 12 15 17 18 20 21 23 24 22 23 24 21 21 21
Wind_Direction
347 338 322 333 48 65 339 315 253 310 2 304 122 131 135 49 137 160 143 154 159 179 175 176 177 180 180 176 171 163 154 150 148 144 140 136 133 131 129 123 122 121 120 119 118 118 118 117 115
356 344 2 46 78 61 295 263 309 254 350 105 81 65 49 41 60 103 144 159 164 181 182 180 180 182 184 183 179 172 163 156 153 149 145 142 138 133 130 127 123 121 122 121 120 119 119 118 119
346 346 13 86 102 138 205 233 285 295 72 270 102 70 73 67 83 109 110 173 167 181 188 185 185 185 187 188 185 181 175 167 160 155 152 149 146 142 138 135 131 128 127 126 126 125 127 126 124
356 11 55 78 237 255 223 284 272 293 132 147 128 61 75 93 102 94 67 145 167 183 192 192 191 190 191 192 190 188 183 177 171 166 162 158 156 151 146 140 137 133 133 133 134 136 137 140 141
5 59 47 52 272 267 258 283 286 198 104 118 106 156 125 143 126 124 124 109 165 179 195 198 198 197 195 196 195 194 191 187 184 177 172 168 164 158 153 147 144 141 140 142 144 146 149 154 156
70 71 59 266 269 275 289 318 286 359 119 133 103 128 156 176 156 159 131 130 161 175 196 202 203 202 201 200 200 199 197 196 195 189 182 178 173 169 161 158 154 151 149 151 154 156 157 163 172
114 83 187 218 267 308 305 353 47 29 346 28 142 134 239 189 182 175 160 168 165 183 198 207 208 205 206 205 204 204 204 202 202 199 194 189 184 181 174 169 166 164 161 161 162 167 169 176 188
103 91 134 264 241 269 337 11 18 42 34 6 331 174 254 210 200 189 186 183 176 188 200 212 215 211 208 206 207 207 208 207 207 205 203 200 195 193 188 183 179 178 177 174 173 175 186 193 201
124 66 181 246 171 247 317 27 354 345 319 340 320 312 295 301 210 206 202 201 198 194 204 212 219 216 212 210 208 208 209 209 210 208 208 207 205 202 199 195 194 193 193 192 191 189 199 207 221
107 123 215 210 207 256 309 344 323 320 326 316 303 238 332 323 234 226 223 229 222 212 211 212 218 219 215 214 211 210 209 210 211 212 212 213 212 213 210 207 206 207 206 206 204 204 209 221 226
164 197 210 260 256 306 313 318 323 267 273 273 289 296 307 300 242 236 231 246 258 233 219 218 219 220 219 219 216 213 212 213 214 215 215 216 216 217 217 215 217 217 217 216 216 215 220 233 239
225 252 213 278 360 344 302 304 305 260 260 290 292 284 285 272 241 247 244 246 245 241 229 225 227 225 220 223 224 221 217 216 217 217 218 218 218 220 223 226 225 227 229 229 228 228 228 237 248
198 277 264 279 295 288 274 257 253 271 282 287 286 283 283 273 247 251 254 253 249 246 237 230 231 232 224 221 225 228 226 223 222 220 222 223 223 225 226 230 231 234 235 235 235 234 238 242 248
306 284 286 292 277 253 234 272 229 273 294 291 290 290 309 317 254 256 253 262 251 244 240 234 234 236 230 226 226 233 234 230 227 225 226 228 228 231 234 234 234 236 238 241 244 246 246 246 247
306 328 326 248 257 228 201 286 220 278 294 295 310 321 334 348 346 299 270 263 267 253 240 238 235 237 237 234 231 232 238 235 233 233 231 232 233 234 236 237 241 239 244 246 248 245 245 246 247
332 47 335 289 161 238 162 263 250 244 325 304 301 303 313 315 317 320 311 295 290 252 239 240 236 237 239 236 236 234 239 243 242 239 237 236 237 239 240 242 242 247 245 248 246 243 243 244 249
5 247 240 316 236 199 184 264 260 254 317 295 297 296 299 304 303 300 302 282 280 270 236 236 237 236 238 238 238 236 238 247 249 243 240 240 241 242 244 248 249 248 248 250 248 246 245 244 247
200 223 240 249 308 134 246 265 284 295 304 284 288 285 288 296 296 297 298 287 283 256 245 236 239 237 237 239 239 235 237 244 249 247 240 241 245 247 249 251 253 253 251 251 247 246 246 247 244
127 212 255 259 280 9 251 279 284 290 281 273 275 279 287 288 292 291 297 289 269 249 229 235 238 235 234 234 237 232 233 240 244 240 239 242 249 253 255 256 256 255 253 255 253 248 246 243 235
249 262 266 285 273 199 281 265 260 271 261 260 269 279 290 286 287 296 294 288 269 240 222 225 229 230 229 232 237 236 233 236 240 238 238 241 245 248 251 255 259 259 257 256 254 250 251 251 245
225 229 243 241 325 269 286 283 238 257 247 266 269 275 277 285 291 289 287 278 264 227 217 217 218 223 227 230 234 235 233 237 240 238 236 238 246 250 249 255 258 259 259 256 258 261 258 254 246
237 207 242 246 106 249 143 287 274 276 268 267 274 277 286 296 274 195 196 202 172 167 170 184 194 207 219 228 235 241 242 243 246 241 245 256 265 271 268 264 263 266 267 264 264 265 267 265 257
220 173 191 200 176 280 162 292 272 243 245 256 262 271 282 247 185 171 166 172 171 166 169 174 182 195 210 226 240 245 249 251 255 254 255 262 260 263 264 269 271 275 273 267 268 267 269 267 263
162 86 93 81 144 262 184 196 185 178 212 226 240 233 230 195 185 180 169 156 156 161 165 171 178 186 196 216 233 248 255 258 256 258 262 268 268 270 278 282 275 277 280 272 283 274 272 265 266
158 114 276 304 182 246 194 220 250 285 221 213 236 223 208 191 187 179 178 166 156 153 154 156 157 166 179 197 216 229 235 245 256 262 264 271 277 279 281 282 286 281 292 275 274 268 273 263 256
187 170 176 201 207 270 210 237 243 220 232 246 254 241 201 184 183 181 168 158 148 144 145 148 149 155 165 192 214 227 238 246 254 264 271 276 278 279 284 272 289 274 280 284 282 277 271 260 262
196 210 178 341 133 307 219 277 273 230 238 202 210 192 186 180 178 175 166 157 144 139 141 137 134 132 123 133 231 245 250 254 258 264 270 275 276 278 280 276 276 275 283 275 271 270 263 258 250
160 169 96 138 241 238 248 261 232 224 227 223 208 187 179 176 176 178 174 169 160 156 152 152 148 139 129 122 115 319 293 280 274 274 277 282 282 282 282 284 278 278 270 273 271 263 256 245 236
176 230 195 162 171 194 285 261 212 203 206 201 199 187 179 177 174 173 177 185 186 183 175 168 150 141 141 136 136 83 356 325 298 288 288 289 282 280 282 283 280 272 267 269 251 245 235 226 221
199 201 202 172 218 233 243 264 144 228 233 175 171 183 182 182 185 189 188 195 203 207 198 185 170 165 158 158 166 234 339 351 346 335 322 312 303 296 288 284 279 270 261 247 240 231 229 222 233